Date String (YYYY-MM-DD hh:mm:ss) UTC,Instrument flags,absolute air pressure of the measurement (hPa),sample flow rate (lpm),inlet stack bypass flow (lpm),air temperature of the measurement (°C),ambient temperature measured by the external sensor (°C),aerosol sample conditioner tube jacket temperature (°C),OPC LED temperature (°C),internal box temperature (°C),relative humidity of the measurement (%),span deviation,mass concentration of particles derived from Lorenz-Mie calculation of OPC scattering (μg/m³),mass concentration of particles derived from Lorenz-Mie calculation of OPC scattering (μg/m³),mass concentration of particles derived from Lorenz-Mie calculation of OPC scattering (μg/m³)
DateTimeUTC,F1_M11,P_M11,Q1_M11,Q2_M11,T1_M11,T2_M11,T3_M11,T4_M11,T5_M11,U1_M11,ZSPAN_M11,X0_M11,X2_M11,X1_M11
2023-08-08 21:00:00,SystemResetWarning,0830.0,4.99,000.00,028.8,025.8,000.0,037.2,030.3,24.2,0000.0,0012.71,0005.19,0004.43
2023-08-08 21:01:00,SystemResetWarning,0830.0,5.00,000.00,028.8,026.2,000.0,037.2,030.4,25.8,0000.0,0013.10,0005.23,0004.44
2023-08-08 21:02:00,SystemResetWarning,0830.0,5.01,000.00,028.9,026.6,000.0,037.2,030.5,25.3,0000.0,0013.68,0005.23,0004.43
2023-08-08 21:03:00,SystemResetWarning,0830.0,5.00,000.00,028.9,027.0,000.0,037.3,030.6,25.4,0000.0,0013.88,0005.21,0004.43
2023-08-08 21:04:00,SystemResetWarning,0830.0,5.00,000.00,028.9,027.3,000.0,037.3,030.7,24.8,0000.0,0013.38,0005.17,0004.41
2023-08-08 21:05:00,SystemResetWarning,0830.0,5.00,000.00,029.0,027.6,000.0,037.3,030.8,25.0,0000.0,0013.62,0005.10,0004.39
2023-08-08 21:06:00,SystemResetWarning,0830.0,5.00,000.00,029.0,027.8,000.0,037.4,030.9,25.3,0000.0,0013.08,0005.03,0004.36
2023-08-08 21:07:00,SystemResetWarning,0830.0,4.99,000.00,029.1,027.7,000.0,037.4,030.9,24.9,0000.0,0012.93,0005.01,0004.35
2023-08-08 21:08:00,SystemResetWarning,0830.0,4.99,000.00,029.1,026.1,000.0,037.3,030.6,24.0,0000.0,0012.97,0004.96,0004.33
2023-08-08 21:09:00,SystemResetWarning,0830.0,5.01,000.00,029.0,024.9,000.0,037.2,030.3,24.9,0000.0,0012.97,0004.94,0004.30
2023-08-08 21:10:00,SystemResetWarning,0830.0,5.01,000.00,028.9,025.0,000.0,037.1,030.2,24.7,0000.0,0013.50,0004.93,0004.26
2023-08-08 21:11:00,SystemResetWarning,0830.0,5.00,000.00,028.8,025.3,000.0,037.2,030.2,24.1,0000.0,0013.90,0004.85,0004.20
2023-08-08 21:12:00,SystemResetWarning,0830.0,5.00,000.00,028.8,025.7,000.0,037.2,030.3,23.3,0000.0,0013.51,0004.77,0004.14
2023-08-08 21:13:00,SystemResetWarning,0830.0,5.00,000.00,028.8,026.2,000.0,037.2,030.4,23.2,0000.0,0012.82,0004.71,0004.09
2023-08-08 21:14:00,SystemResetWarning,0830.0,5.00,000.00,028.9,026.6,000.0,037.2,030.5,23.2,0000.0,0011.92,0004.65,0004.04
2023-08-08 21:15:00,SystemResetWarning,0830.0,4.99,000.00,028.9,027.0,000.0,037.3,030.6,22.8,0000.0,0011.96,0004.57,0004.00
2023-08-08 21:16:00,SystemResetWarning,0830.1,4.99,000.00,029.0,027.3,000.0,037.3,030.7,22.9,0000.0,0011.15,0004.49,0003.95
2023-08-08 21:17:00,SystemResetWarning,0830.1,5.01,000.00,029.0,027.6,000.0,037.3,030.8,22.5,0000.0,0010.49,0004.43,0003.91
2023-08-08 21:18:00,SystemResetWarning,0830.1,5.00,000.00,029.1,027.8,000.0,037.4,030.9,22.8,0000.0,0010.40,0004.34,0003.87
2023-08-08 21:19:00,SystemResetWarning,0830.1,5.00,000.00,029.1,027.4,000.0,037.3,030.8,23.0,0000.0,0010.45,0004.36,0003.84
2023-08-08 21:20:00,SystemResetWarning,0830.1,5.01,000.00,029.1,025.6,000.0,037.2,030.5,23.1,0000.0,0009.40,0004.30,0003.82
2023-08-08 21:21:00,SystemResetWarning,0830.1,5.00,000.00,029.0,024.7,000.0,037.1,030.3,23.2,0000.0,0008.62,0004.27,0003.82
2023-08-08 21:22:00,SystemResetWarning,0830.0,5.00,000.00,028.9,025.0,000.0,037.1,030.2,23.5,0000.0,0008.00,0004.28,0003.84
2023-08-08 21:23:00,SystemResetWarning,0830.0,5.01,000.00,028.8,025.4,000.0,037.2,030.2,23.5,0000.0,0008.11,0004.30,0003.85
2023-08-08 21:24:00,SystemResetWarning,0830.0,4.99,000.00,028.8,025.8,000.0,037.2,030.3,22.1,0000.0,0008.22,0004.35,0003.87
2023-08-08 21:25:00,SystemResetWarning,0830.0,5.00,000.00,028.8,026.3,000.0,037.2,030.4,22.4,0000.0,0008.26,0004.42,0003.91
2023-08-08 21:26:00,SystemResetWarning,0830.0,5.01,000.00,028.9,026.7,000.0,037.2,030.5,23.4,0000.0,0007.97,0004.47,0003.95
2023-08-08 21:27:00,SystemResetWarning,0830.0,5.01,000.00,028.9,027.1,000.0,037.3,030.6,22.8,0000.0,0008.35,0004.56,0004.00
2023-08-08 21:28:00,SystemResetWarning,0830.0,4.99,000.00,029.0,027.4,000.0,037.3,030.7,22.4,0000.0,0008.84,0004.61,0004.04
2023-08-08 21:29:00,SystemResetWarning,0830.0,4.99,000.00,029.0,027.6,000.0,037.3,030.8,24.1,0000.0,0009.27,0004.70,0004.07
2023-08-08 21:30:00,SystemResetWarning,0829.9,5.01,000.00,029.1,027.8,000.0,037.4,030.9,24.2,0000.0,0009.72,0004.70,0004.09
2023-08-08 21:31:00,SystemResetWarning,0830.0,5.00,000.00,029.1,027.7,000.0,037.4,030.9,24.3,0000.0,0010.19,0004.74,0004.12
2023-08-08 21:32:00,SystemResetWarning,0829.9,4.99,000.00,029.1,026.1,000.0,037.3,030.6,24.8,0000.0,0010.58,0004.82,0004.17
2023-08-08 21:33:00,SystemResetWarning,0829.9,5.01,000.00,029.0,024.9,000.0,037.2,030.3,25.6,0000.0,0010.86,0004.87,0004.21
2023-08-08 21:34:00,SystemResetWarning,0829.9,5.01,000.00,028.9,025.0,000.0,037.1,030.3,25.3,0000.0,0010.89,0004.92,0004.25
2023-08-08 21:35:00,SystemResetWarning,0829.9,5.00,000.00,028.8,025.3,000.0,037.2,030.2,24.6,0000.0,0010.99,0004.97,0004.28
2023-08-08 21:36:00,SystemResetWarning,0829.9,4.99,000.00,028.8,025.8,000.0,037.2,030.3,23.8,0000.0,0011.11,0004.99,0004.28
2023-08-08 21:37:00,SystemResetWarning,0829.9,5.00,000.00,028.8,026.2,000.0,037.2,030.4,23.8,0000.0,0011.21,0005.02,0004.29
2023-08-08 21:38:00,SystemResetWarning,0829.9,5.00,000.00,028.9,026.6,000.0,037.3,030.5,25.4,0000.0,0011.11,0005.00,0004.28
2023-08-08 21:39:00,SystemResetWarning,0829.9,4.99,000.00,028.9,027.0,000.0,037.3,030.6,26.1,0000.0,0010.75,0005.03,0004.29
2023-08-08 21:40:00,SystemResetWarning,0829.9,5.00,000.00,029.0,027.4,000.0,037.3,030.7,25.4,0000.0,0010.47,0005.00,0004.30
2023-08-08 21:41:00,SystemResetWarning,0829.9,5.00,000.00,029.0,027.6,000.0,037.3,030.8,25.4,0000.0,0009.75,0004.98,0004.32
2023-08-08 21:42:00,SystemResetWarning,0829.9,5.01,000.00,029.1,027.9,000.0,037.4,030.9,24.7,0000.0,0009.25,0004.99,0004.33
2023-08-08 21:43:00,SystemResetWarning,0829.8,5.00,000.00,029.1,027.5,000.0,037.4,030.8,24.3,0000.0,0008.90,0004.98,0004.33
2023-08-08 21:44:00,SystemResetWarning,0829.7,4.98,000.00,029.1,025.7,000.0,037.2,030.5,24.8,0000.0,0008.78,0004.99,0004.34
2023-08-08 21:45:00,SystemResetWarning,0829.7,5.01,000.00,029.0,024.9,000.0,037.2,030.3,24.5,0000.0,0008.91,0005.01,0004.34
2023-08-08 21:46:00,SystemResetWarning,0829.7,5.02,000.00,028.9,025.1,000.0,037.1,030.2,24.0,0000.0,0009.14,0004.98,0004.35
2023-08-08 21:47:00,SystemResetWarning,0829.7,4.99,000.00,028.9,025.5,000.0,037.2,030.2,22.2,0000.0,0009.67,0004.99,0004.37
2023-08-08 21:48:00,SystemResetWarning,0829.7,5.00,000.00,028.9,025.9,000.0,037.2,030.3,22.0,0000.0,0009.99,0005.03,0004.38
2023-08-08 21:49:00,SystemResetWarning,0829.7,5.01,000.00,028.9,026.4,000.0,037.3,030.5,22.6,0000.0,0010.60,0005.04,0004.39
2023-08-08 21:50:00,SystemResetWarning,0829.7,5.00,000.00,028.9,026.8,000.0,037.3,030.6,23.0,0000.0,0010.57,0005.05,0004.41
2023-08-08 21:51:00,SystemResetWarning,0829.7,5.00,000.00,029.0,027.1,000.0,037.3,030.7,23.7,0000.0,0010.86,0005.06,0004.42
2023-08-08 21:52:00,SystemResetWarning,0829.8,5.00,000.00,029.0,027.4,000.0,037.3,030.8,23.2,0000.0,0011.34,0005.09,0004.43
2023-08-08 21:53:00,SystemResetWarning,0829.7,4.99,000.00,029.1,027.7,000.0,037.4,030.9,23.6,0000.0,0011.58,0005.13,0004.46
2023-08-08 21:54:00,SystemResetWarning,0829.8,4.99,000.00,029.1,027.6,000.0,037.4,030.9,24.0,0000.0,0012.39,0005.15,0004.48
2023-08-08 21:55:00,SystemResetWarning,0829.7,5.00,000.00,029.1,026.2,000.0,037.3,030.6,24.7,0000.0,0012.82,0005.18,0004.49
2023-08-08 21:56:00,SystemResetWarning,0829.7,5.01,000.00,029.0,025.8,000.0,037.2,030.5,25.3,0000.0,0013.18,0005.21,0004.52
2023-08-08 21:57:00,SystemResetWarning,0829.7,5.01,000.00,029.0,026.0,000.0,037.2,030.4,26.1,0000.0,0012.82,0005.22,0004.54
2023-08-08 21:58:00,SystemResetWarning,0829.7,5.00,000.00,029.0,026.3,000.0,037.3,030.5,25.4,0000.0,0012.51,0005.22,0004.55
2023-08-08 21:59:00,SystemResetWarning,0829.7,4.99,000.00,029.0,026.7,000.0,037.3,030.6,24.9,0000.0,0012.07,0005.20,0004.57
